Beach, ND

4:42 AM MDT on April 27, 2017 (GMT -0600)
Beach

Weather History for K20U - August, 2014

Change the Weather History Date:

Wednesday, August 27, 2014

  Actual Average (KGDV) Record (KGDV)
Temperature  
Mean Temperature 62 °F -  
Max Temperature 77 °F 82 °F 98 °F (1996)
Min Temperature 48 °F 53 °F 41 °F (2008)
Degree Days  
Heating Degree Days 2    
Growing Degree Days 12 (Base 50)    
Moisture  
Dew Point 55 °F    
Average Humidity 79    
Maximum Humidity 100    
Minimum Humidity 41    
Precipitation  
Precipitation 0.00 in - - ()
Sea Level Pressure  
Sea Level Pressure 30.09 in    
Wind  
Wind Speed 8 mph (SSE)    
Max Wind Speed 14 mph    
Max Gust Speed 18 mph    
Visibility 10 miles    
Events      
Averages and records for this station are not official NWS values.
T = Trace of Precipitation, MM = Missing Value Source: NWS Daily Summary

Daily Weather History Graph

Daily Weather History Graph

Search for Another Location

Airport or City:

Trip Planner

Search our weather history database for the weather conditions in past years. The results will help you decide how hot, cold, wet, or windy it might be!

Date:

Astronomy

Aug. 27, 2014 Rise Set
Actual Time 6:08 AM MDT 7:44 PM MDT
Civil Twilight 5:37 AM MDT 8:16 PM MDT
Nautical Twilight 4:58 AM MDT 8:55 PM MDT
Astronomical Twilight 4:15 AM MDT 9:37 PM MDT
Moon 8:17 AM MDT 8:26 PM MDT
Length of Visible Light 14h 39m
Length of Day
13h 35m
Waxing Crescent, 4% of the Moon is Illuminated
Aug 27
Waxing Crescent
Sep 2
First Quarter
Sep 8
Full
Sep 15
Last Quarter
Sep 24
New

Hourly Weather History & Observations

Time (MDT) Temp. Dew Point Humidity Pressure Visibility Wind Dir Wind Speed Gust Speed Precip Events Conditions
12:15 AM 53.6 °F 53.6 °F 100% 30.16 in 10.0 mi SE 6.9 mph - N/A   Unknown
12:55 AM 53.6 °F 53.6 °F 100% 30.16 in 10.0 mi SSE 9.2 mph - N/A   Unknown
1:15 AM 53.6 °F 53.6 °F 100% 30.15 in 10.0 mi SSE 6.9 mph - N/A   Unknown
1:35 AM 51.8 °F 51.8 °F 100% 30.15 in 10.0 mi SSE 8.1 mph - N/A   Unknown
1:55 AM 53.6 °F 53.6 °F 100% 30.16 in 10.0 mi SSE 8.1 mph - N/A   Unknown
2:15 AM 51.8 °F 51.8 °F 100% 30.15 in 10.0 mi SSE 5.8 mph - N/A   Unknown
2:35 AM 50.0 °F 50.0 °F 100% 30.15 in 10.0 mi ESE 4.6 mph - N/A   Unknown
2:55 AM 50.0 °F 50.0 °F 100% 30.15 in 10.0 mi SSE 3.5 mph - N/A   Unknown
3:15 AM 50.0 °F 50.0 °F 100% 30.15 in 10.0 mi SSE 4.6 mph - N/A   Unknown
3:35 AM 50.0 °F 50.0 °F 100% 30.15 in 10.0 mi SSE 6.9 mph - N/A   Unknown
3:55 AM 50.0 °F 50.0 °F 100% 30.14 in 10.0 mi SSE 6.9 mph - N/A   Unknown
4:15 AM 50.0 °F 50.0 °F 100% 30.14 in 10.0 mi SSE 4.6 mph - N/A   Unknown
4:35 AM 50.0 °F 50.0 °F 100% 30.14 in 10.0 mi SE 4.6 mph - N/A   Unknown
4:55 AM 48.2 °F 48.2 °F 100% 30.13 in 10.0 mi SSE 8.1 mph - N/A   Unknown
5:15 AM 48.2 °F 48.2 °F 100% 30.13 in 10.0 mi South 8.1 mph - N/A   Unknown
5:35 AM 48.2 °F 48.2 °F 100% 30.13 in 10.0 mi South 5.8 mph - N/A   Unknown
5:55 AM 48.2 °F 48.2 °F 100% 30.13 in 10.0 mi SSE 5.8 mph - N/A   Unknown
6:15 AM 48.2 °F 48.2 °F 100% 30.13 in 10.0 mi South 6.9 mph - N/A   Unknown
6:35 AM 50.0 °F 50.0 °F 100% 30.14 in 10.0 mi South 5.8 mph - N/A   Unknown
6:55 AM 50.0 °F 50.0 °F 100% 30.14 in 10.0 mi SSE 5.8 mph - N/A   Unknown
7:15 AM 51.8 °F 51.8 °F 100% 30.14 in 10.0 mi South 8.1 mph - N/A   Unknown
7:35 AM 53.6 °F 53.6 °F 100% 30.14 in 10.0 mi SSE 8.1 mph - N/A   Unknown
7:55 AM 55.4 °F 55.4 °F 100% 30.14 in 10.0 mi South 9.2 mph - N/A   Unknown
8:15 AM 57.2 °F 57.2 °F 100% 30.14 in 10.0 mi South 9.2 mph - N/A   Unknown
8:35 AM 59.0 °F 59.0 °F 100% 30.14 in 10.0 mi South 11.5 mph - N/A   Unknown
9:15 AM 62.6 °F 60.8 °F 94% 30.14 in 10.0 mi South 11.5 mph - N/A   Unknown
9:35 AM 64.4 °F 60.8 °F 88% 30.14 in 10.0 mi South 8.1 mph - N/A   Unknown
9:55 AM 66.2 °F 62.6 °F 88% 30.13 in 10.0 mi SSE 12.7 mph - N/A   Unknown
10:15 AM 68.0 °F 62.6 °F 83% 30.13 in 10.0 mi South 10.4 mph - N/A   Unknown
10:35 AM 68.0 °F 62.6 °F 83% 30.12 in 10.0 mi SSE 12.7 mph - N/A   Unknown
10:55 AM 68.0 °F 60.8 °F 78% 30.12 in 10.0 mi South 11.5 mph 18.4 mph N/A   Unknown
11:15 AM 71.6 °F 60.8 °F 69% 30.11 in 10.0 mi SSE 13.8 mph - N/A   Unknown
11:35 AM 71.6 °F 59.0 °F 64% 30.11 in 10.0 mi SSE 11.5 mph 18.4 mph N/A   Unknown
11:55 AM 73.4 °F 57.2 °F 57% 30.10 in 10.0 mi SSE 11.5 mph - N/A   Unknown
12:15 PM 73.4 °F 57.2 °F 57% 30.09 in 10.0 mi SSE 11.5 mph - N/A   Unknown
12:35 PM 73.4 °F 55.4 °F 53% 30.09 in 10.0 mi SSE 9.2 mph - N/A   Unknown
12:55 PM 75.2 °F 53.6 °F 47% 30.08 in 10.0 mi SSE 9.2 mph - N/A   Unknown
1:15 PM 75.2 °F 51.8 °F 44% 30.08 in 10.0 mi South 8.1 mph - N/A   Unknown
1:35 PM 77.0 °F 51.8 °F 41% 30.07 in 10.0 mi ESE 4.6 mph - N/A   Unknown
1:55 PM 77.0 °F 51.8 °F 41% 30.07 in 10.0 mi SSE 6.9 mph - N/A   Unknown
2:15 PM 77.0 °F 53.6 °F 44% 30.06 in 10.0 mi South 12.7 mph - N/A   Unknown
2:35 PM 77.0 °F 53.6 °F 44% 30.06 in 10.0 mi SE 11.5 mph - N/A   Unknown
2:55 PM 77.0 °F 53.6 °F 44% 30.05 in 10.0 mi SSE 11.5 mph 17.3 mph N/A   Unknown
3:15 PM 77.0 °F 53.6 °F 44% 30.05 in 10.0 mi SSE 13.8 mph - N/A   Unknown
3:35 PM 77.0 °F 53.6 °F 44% 30.04 in 10.0 mi SE 10.4 mph - N/A   Unknown
3:55 PM 77.0 °F 51.8 °F 41% 30.04 in 10.0 mi South 13.8 mph - N/A   Unknown
4:15 PM 77.0 °F 53.6 °F 44% 30.03 in 10.0 mi SSE 10.4 mph - N/A   Unknown
4:35 PM 77.0 °F 53.6 °F 44% 30.03 in 10.0 mi South 8.1 mph - N/A   Unknown
4:55 PM 75.2 °F 53.6 °F 47% 30.03 in 10.0 mi South 10.4 mph - N/A   Unknown
5:15 PM 77.0 °F 51.8 °F 41% 30.03 in 10.0 mi South 8.1 mph - N/A   Unknown
5:35 PM 77.0 °F 53.6 °F 44% 30.03 in 10.0 mi South 8.1 mph - N/A   Unknown
5:55 PM 75.2 °F 53.6 °F 47% 30.02 in 10.0 mi SSE 9.2 mph - N/A   Unknown
6:15 PM 75.2 °F 55.4 °F 50% 30.02 in 10.0 mi South 8.1 mph - N/A   Unknown
6:35 PM 73.4 °F 55.4 °F 53% 30.02 in 10.0 mi South 8.1 mph - N/A   Unknown
6:55 PM 71.6 °F 57.2 °F 60% 30.02 in 10.0 mi SSE 6.9 mph - N/A   Unknown
7:15 PM 69.8 °F 57.2 °F 64% 30.01 in 10.0 mi SSE 8.1 mph - N/A   Unknown
7:35 PM 68.0 °F 57.2 °F 68% 30.01 in 10.0 mi SSE 8.1 mph - N/A   Unknown
7:55 PM 64.4 °F 57.2 °F 77% 30.02 in 10.0 mi SSE 8.1 mph - N/A   Unknown
8:15 PM 62.6 °F 59.0 °F 88% 30.02 in 3.0 mi SE 8.1 mph - N/A   Mist
8:35 PM 62.6 °F 59.0 °F 88% 30.03 in 10.0 mi SE 5.8 mph - N/A   Unknown
8:55 PM 62.6 °F 59.0 °F 88% 30.03 in 10.0 mi SSE 10.4 mph - N/A   Unknown
9:15 PM 64.4 °F 60.8 °F 88% 30.03 in 10.0 mi South 10.4 mph - N/A   Unknown
9:35 PM 62.6 °F 60.8 °F 94% 30.03 in 10.0 mi South 11.5 mph - N/A   Unknown
9:55 PM 62.6 °F 62.6 °F 100% 30.02 in 10.0 mi South 11.5 mph - N/A   Unknown
10:15 PM 62.6 °F 62.6 °F 100% 30.02 in 10.0 mi South 10.4 mph - N/A   Unknown
10:35 PM 60.8 °F 60.8 °F 100% 30.02 in 10.0 mi South 10.4 mph - N/A   Unknown
11:15 PM 60.8 °F 60.8 °F 100% 30.01 in 10.0 mi South 11.5 mph - N/A   Unknown
11:35 PM 60.8 °F 60.8 °F 100% 30.01 in 10.0 mi South 6.9 mph - N/A   Unknown
11:55 PM 59.0 °F 59.0 °F 100% 30.00 in 10.0 mi South 6.9 mph - N/A   Unknown